DHK6890 EDDP-LROP

Flight info

Callsign DHK6890
Flight time N/A
Altitude 39000
Route DRN2E/08R DRN Z21 OMELO DCT EVIKU DCT BNO DCT ODNEM DCT BERVA DCT ERGOM DCT TEGRI DCT NEKUL DCT LAMIT DCT TOSVI
Aircraft A333/H-SDE3GHIJ2J3J5M1RVWXY/LB2D1

Departure

Time N/A
Airport Leipzig/Halle Airport (EDDP)

Arrival

Time 2026-04-30 18:48
Airport Bucharest Henri Coandă International Airport (LROP)
Time Latitude Longitude Altitude Speed Heading
2026-04-30 17:39 48.33606 17.96208 39351 ft 487 kts 131°
2026-04-30 17:42 48.09519 18.31686 39333 ft 487 kts 132°
2026-04-30 17:43 47.97423 18.49317 39321 ft 488 kts 133°
2026-04-30 17:44 47.82801 18.70467 39325 ft 490 kts 133°
2026-04-30 17:47 47.61908 19.03517 39328 ft 488 kts 130°
2026-04-30 17:48 47.45636 19.29204 39319 ft 489 kts 130°
2026-04-30 17:50 47.26968 19.58384 39326 ft 491 kts 131°
2026-04-30 17:51 47.19986 19.69213 38858 ft 486 kts 131°
2026-04-30 17:52 47.12991 19.80021 38070 ft 486 kts 131°
2026-04-30 17:53 47.01349 19.97911 36778 ft 486 kts 131°
2026-04-30 17:54 46.91989 20.12204 35814 ft 486 kts 132°
2026-04-30 17:55 46.82641 20.26405 34874 ft 486 kts 132°
2026-04-30 17:56 46.73229 20.40627 33864 ft 487 kts 132°
2026-04-30 17:57 46.66160 20.51256 33059 ft 487 kts 132°
2026-04-30 17:58 46.59123 20.61797 32291 ft 486 kts 132°
2026-04-30 17:59 46.49681 20.75873 31245 ft 485 kts 133°
2026-04-30 18:00 46.40334 20.89734 30235 ft 476 kts 132°
2026-04-30 18:00 46.33451 20.99897 29374 ft 471 kts 132°
2026-04-30 18:01 46.28879 21.06624 28807 ft 467 kts 132°
2026-04-30 18:02 46.22816 21.17420 27971 ft 457 kts 123°
2026-04-30 18:02 46.17340 21.28553 27285 ft 454 kts 122°
2026-04-30 18:03 46.11875 21.39676 27290 ft 452 kts 123°
2026-04-30 18:04 46.06390 21.50736 27285 ft 452 kts 123°
2026-04-30 18:05 45.99088 21.65377 26550 ft 450 kts 123°
2026-04-30 18:06 45.91834 21.79849 25538 ft 443 kts 123°
2026-04-30 18:07 45.84693 21.94027 24577 ft 437 kts 122°
2026-04-30 18:08 45.79366 22.04556 23858 ft 432 kts 122°
2026-04-30 18:09 45.72369 22.18331 22776 ft 426 kts 122°
2026-04-30 18:10 45.65435 22.31910 21704 ft 419 kts 122°
2026-04-30 18:11 45.58622 22.45196 20685 ft 413 kts 123°
2026-04-30 18:11 45.53541 22.55063 19938 ft 409 kts 123°
2026-04-30 18:12 45.48497 22.64817 19322 ft 406 kts 123°
2026-04-30 18:13 45.45146 22.71282 19320 ft 405 kts 123°
2026-04-30 18:13 45.40128 22.80929 19304 ft 406 kts 123°
2026-04-30 18:14 45.36764 22.87377 19333 ft 406 kts 123°
2026-04-30 18:15 45.31709 22.97057 19338 ft 407 kts 123°
2026-04-30 18:15 45.26667 23.06668 18911 ft 406 kts 123°
2026-04-30 18:16 45.23298 23.13057 18404 ft 403 kts 124°
2026-04-30 18:16 45.19952 23.19396 17849 ft 399 kts 123°
2026-04-30 18:17 45.18294 23.22538 17578 ft 397 kts 124°
2026-04-30 18:17 45.16641 23.25664 17288 ft 396 kts 124°
2026-04-30 18:17 45.13371 23.31836 16780 ft 392 kts 124°
2026-04-30 18:18 45.11769 23.34945 16511 ft 389 kts 120°
2026-04-30 18:18 45.10493 23.38289 16247 ft 383 kts 109°
2026-04-30 18:18 45.09625 23.41827 15989 ft 379 kts 103°
2026-04-30 18:18 45.08910 23.45400 15727 ft 377 kts 102°
2026-04-30 18:19 45.08231 23.48972 15467 ft 375 kts 101°
2026-04-30 18:19 45.07560 23.52527 15225 ft 373 kts 101°
2026-04-30 18:19 45.06902 23.56021 14967 ft 371 kts 101°
2026-04-30 18:19 45.06237 23.59540 14728 ft 370 kts 102°
2026-04-30 18:20 45.05573 23.63047 14491 ft 368 kts 102°
2026-04-30 18:20 45.04910 23.66545 14253 ft 369 kts 102°
2026-04-30 18:20 45.04245 23.70046 13982 ft 368 kts 102°
2026-04-30 18:20 45.03582 23.73527 13708 ft 366 kts 102°
2026-04-30 18:21 45.02921 23.76992 13434 ft 364 kts 102°
2026-04-30 18:21 45.02264 23.80430 13160 ft 362 kts 102°
2026-04-30 18:21 45.01608 23.83859 12893 ft 360 kts 102°
2026-04-30 18:21 45.00962 23.87221 12628 ft 358 kts 102°
2026-04-30 18:22 45.00312 23.90605 12368 ft 356 kts 102°
2026-04-30 18:22 44.99017 23.97329 11825 ft 353 kts 102°
2026-04-30 18:22 44.98373 24.00668 11586 ft 352 kts 103°
2026-04-30 18:23 44.97730 24.03995 11337 ft 351 kts 103°
2026-04-30 18:23 44.97088 24.07309 11075 ft 349 kts 103°
2026-04-30 18:23 44.96448 24.10604 10821 ft 347 kts 103°
2026-04-30 18:23 44.95820 24.13838 10575 ft 345 kts 103°
2026-04-30 18:24 44.94562 24.20286 10045 ft 330 kts 103°
2026-04-30 18:24 44.93962 24.23347 9777 ft 317 kts 103°
2026-04-30 18:24 44.93385 24.26293 9499 ft 306 kts 103°
2026-04-30 18:25 44.92829 24.29127 9349 ft 292 kts 103°
2026-04-30 18:25 44.91775 24.34494 9349 ft 282 kts 103°
2026-04-30 18:25 44.91250 24.37166 9343 ft 282 kts 103°
2026-04-30 18:26 44.90137 24.42435 8948 ft 281 kts 105°
2026-04-30 18:26 44.89560 24.45061 8691 ft 280 kts 105°
2026-04-30 18:26 44.88986 24.47677 8424 ft 278 kts 105°
2026-04-30 18:27 44.87851 24.52866 7903 ft 275 kts 105°
2026-04-30 18:27 44.87289 24.55436 7648 ft 274 kts 105°
2026-04-30 18:28 44.86182 24.60504 7141 ft 271 kts 105°
2026-04-30 18:28 44.85628 24.63033 6890 ft 269 kts 105°
2026-04-30 18:28 44.84528 24.68050 6365 ft 267 kts 105°
2026-04-30 18:29 44.83981 24.70540 6115 ft 265 kts 104°
2026-04-30 18:29 44.82370 24.77861 5452 ft 259 kts 104°
2026-04-30 18:30 44.81309 24.82663 5349 ft 258 kts 104°
2026-04-30 18:30 44.80242 24.87488 5350 ft 258 kts 104°
2026-04-30 18:31 44.79708 24.89900 5346 ft 258 kts 104°
2026-04-30 18:31 44.78638 24.94719 5344 ft 258 kts 104°
2026-04-30 18:32 44.77567 24.99535 5419 ft 257 kts 104°
2026-04-30 18:32 44.77030 25.01945 5521 ft 258 kts 104°
2026-04-30 18:32 44.75965 25.06708 5274 ft 255 kts 104°
2026-04-30 18:33 44.75435 25.09079 5143 ft 254 kts 104°
2026-04-30 18:33 44.74375 25.13814 5307 ft 254 kts 104°
2026-04-30 18:33 44.73845 25.16176 5346 ft 254 kts 104°
2026-04-30 18:34 44.73313 25.18547 5344 ft 254 kts 104°
2026-04-30 18:34 44.72247 25.23284 5344 ft 254 kts 104°
2026-04-30 18:34 44.71712 25.25657 5344 ft 254 kts 104°
2026-04-30 18:35 44.71185 25.27996 5344 ft 255 kts 104°
2026-04-30 18:35 44.70649 25.30367 5344 ft 254 kts 104°
2026-04-30 18:35 44.70113 25.32735 5341 ft 254 kts 104°
2026-04-30 18:36 44.69041 25.37470 5340 ft 254 kts 104°
2026-04-30 18:36 44.68503 25.39842 5344 ft 254 kts 104°
2026-04-30 18:36 44.67429 25.44570 5341 ft 254 kts 104°
2026-04-30 18:37 44.66891 25.46934 5336 ft 254 kts 104°
2026-04-30 18:37 44.66351 25.49301 5338 ft 254 kts 104°
2026-04-30 18:37 44.65820 25.51631 5338 ft 254 kts 104°
2026-04-30 18:37 44.65280 25.53993 5338 ft 254 kts 104°
2026-04-30 18:38 44.64740 25.56357 5338 ft 254 kts 104°
2026-04-30 18:38 44.64200 25.58718 5338 ft 254 kts 104°
2026-04-30 18:38 44.63659 25.61078 5334 ft 254 kts 104°
2026-04-30 18:38 44.63118 25.63437 5334 ft 254 kts 104°
2026-04-30 18:39 44.62576 25.65798 5334 ft 254 kts 104°
2026-04-30 18:39 44.62033 25.68160 5331 ft 254 kts 104°
2026-04-30 18:39 44.61490 25.70520 5330 ft 254 kts 104°
2026-04-30 18:39 44.60954 25.72847 5338 ft 254 kts 104°
2026-04-30 18:40 44.60412 25.75195 5327 ft 253 kts 104°
2026-04-30 18:40 44.59871 25.77542 5326 ft 252 kts 104°
2026-04-30 18:40 44.59330 25.79883 5325 ft 252 kts 104°
2026-04-30 18:40 44.58788 25.82224 5324 ft 252 kts 104°
2026-04-30 18:41 44.58247 25.84561 5341 ft 252 kts 104°
2026-04-30 18:41 44.57705 25.86903 5341 ft 252 kts 104°
2026-04-30 18:41 44.57161 25.89244 5344 ft 252 kts 104°
2026-04-30 18:41 44.56625 25.91551 5344 ft 252 kts 104°
2026-04-30 18:42 44.56082 25.93890 5344 ft 252 kts 104°
2026-04-30 18:42 44.55756 25.98671 5347 ft 246 kts 82°
2026-04-30 18:42 44.55931 26.01058 5314 ft 245 kts 81°
2026-04-30 18:45 44.51960 26.00410 2498 ft 116 kts 52°
2026-04-30 18:45 44.52616 26.00836 2165 ft 126 kts 340°
2026-04-30 18:45 44.53459 26.00040 2552 ft 161 kts 350°
2026-04-30 18:46 44.54554 26.00146 2719 ft 151 kts 24°
2026-04-30 18:46 44.55354 26.00946 2368 ft 137 kts 50°
2026-04-30 18:46 44.55787 26.02099 1931 ft 136 kts 74°
2026-04-30 18:46 44.56023 26.03439 1210 ft 151 kts 75°
2026-04-30 18:47 44.56259 26.04924 668 ft 154 kts 79°
2026-04-30 18:47 44.56333 26.06268 569 ft 129 kts 85°
2026-04-30 18:47 44.56432 26.07455 376 ft 116 kts 81°
2026-04-30 18:47 44.56529 26.08563 327 ft 105 kts 81°
2026-04-30 18:48 44.56606 26.09422 324 ft 75 kts 83°
2026-04-30 18:48 44.56628 26.09929 325 ft 42 kts 84°
2026-04-30 18:48 44.56658 26.10318 326 ft 39 kts 83°
2026-04-30 18:48 44.56690 26.10687 323 ft 34 kts 79°
2026-04-30 18:49 44.56814 26.10755 324 ft 11 kts 344°
2026-04-30 18:49 44.56817 26.10754 325 ft 0 kts 345°
2026-04-30 18:49 44.56833 26.10749 323 ft 6 kts 347°
2026-04-30 18:50 44.56894 26.10739 322 ft 13 kts 355°
2026-04-30 18:50 44.57010 26.10692 322 ft 21 kts 321°
2026-04-30 18:50 44.57068 26.10502 325 ft 22 kts 273°
2026-04-30 18:50 44.57050 26.10308 323 ft 5 kts 254°
2026-04-30 18:51 44.57049 26.10304 322 ft 3 kts 248°
2026-04-30 18:51 44.57005 26.10273 322 ft 11 kts 176°
2026-04-30 18:51 44.56962 26.10278 325 ft 5 kts 174°
2026-04-30 18:51 44.56961 26.10278 325 ft 0 kts 174°